EW5612 Weather Reports


Display with metric or nautical units.
time (UTC)temp
F
wind
direction
speed
MPH
gust
MPH
rain 1hr
in
rain 24hr
in
rain mn
in
humidity
%
barometer
mb
20260509181204 86 189 0.0 0.0 0.00 0.02 0.02 70 1009.4
20260509180703 86 200 0.0 0.0 0.00 0.02 0.02 72 1009.4
20260509180204 86 268 0.0 0.0 0.00 0.02 0.02 69 1009.5
20260509175704 86 181 0.0 0.0 0.00 0.02 0.02 69 1009.5
20260509175204 86 251 0.0 0.0 0.00 0.02 0.02 71 1009.6
20260509174703 86 184 0.0 0.0 0.00 0.02 0.02 73 1009.6
20260509174203 85 200 0.0 0.0 0.00 0.02 0.02 75 1009.7
20260509173703 85 208 0.0 0.0 0.00 0.02 0.02 74 1009.7
20260509173203 85 250 0.0 0.0 0.00 0.02 0.02 74 1009.7
20260509172703 84 204 0.0 0.0 0.00 0.02 0.02 75 1009.7
20260509172204 84 182 0.0 0.0 0.00 0.02 0.02 77 1009.7
20260509171203 83 208 0.0 0.0 0.00 0.02 0.02 77 1009.6
20260509170703 82 224 0.0 0.0 0.00 0.02 0.02 80 1009.6
20260509170204 82 222 0.0 0.0 0.00 0.02 0.02 80 1009.7
20260509165703 82 193 0.0 1.0 0.00 0.02 0.02 80 1009.8
20260509165204 82 191 0.0 0.0 0.00 0.02 0.02 80 1009.9
20260509164204 81 198 0.0 0.0 0.00 0.02 0.02 82 1009.9
20260509163704 80 198 0.0 1.0 0.00 0.02 0.02 83 1009.9
20260509163203 80 184 0.0 3.0 0.00 0.02 0.02 86 1010.0
20260509162703 79 164 0.0 0.0 0.00 0.02 0.02 90 1009.9
20260509162204 78 161 0.0 0.0 0.00 0.02 0.02 90 1009.9
20260509161204 77 110 0.0 0.0 0.00 0.02 0.02 94 1009.8
20260509160704 76 110 0.0 0.0 0.00 0.02 0.02 96 1009.9
20260509155203 75 186 0.0 0.0 0.00 0.02 0.02 96 1010.0
20260509154704 75 189 0.0 0.0 0.00 0.02 0.02 97 1010.0
20260509154204 74 189 0.0 0.0 0.00 0.02 0.02 97 1009.9
20260509153703 74 189 0.0 0.0 0.00 0.02 0.02 96 1009.8
20260509153203 74 189 0.0 0.0 0.00 0.02 0.02 96 1009.8
20260509152703 74 189 0.0 2.0 0.00 0.02 0.02 96 1009.8
20260509152203 74 183 1.0 3.0 0.00 0.02 0.02 97 1009.9
20260509151704 74 200 0.0 1.0 0.00 0.02 0.02 96 1009.9
20260509150703 74 255 0.0 0.0 0.00 0.02 0.02 97 1009.9
20260509150203 74 255 0.0 0.0 0.00 0.02 0.02 97 1010.1
20260509145703 74 256 0.0 0.0 0.00 0.02 0.02 97 1009.9
20260509144704 74 279 0.0 0.0 0.00 0.02 0.02 97 1009.8
20260509144204 74 279 0.0 0.0 0.00 0.02 0.02 97 1009.9
20260509143704 74 279 0.0 0.0 0.00 0.02 0.02 97 1010.0
20260509143204 74 279 0.0 0.0 0.00 0.02 0.02 96 1010.0
20260509142704 74 279 0.0 0.0 0.00 0.02 0.02 96 1009.9
20260509142203 73 279 0.0 0.0 0.00 0.02 0.02 96 1009.8
20260509141704 73 279 0.0 0.0 0.00 0.02 0.02 96 1009.8
20260509141204 74 279 0.0 0.0 0.00 0.02 0.02 97 1009.7
20260509140204 73 279 0.0 0.0 0.00 0.02 0.02 97 1009.8
20260509135704 73 279 0.0 0.0 0.00 0.02 0.02 96 1009.9
20260509134704 73 279 0.0 0.0 0.00 0.02 0.02 96 1009.9
20260509134204 73 279 0.0 0.0 0.00 0.02 0.02 96 1009.9
20260509133703 73 279 0.0 0.0 0.00 0.02 0.02 96 1010.0
20260509133204 73 279 0.0 0.0 0.00 0.02 0.02 96 1010.1
20260509132704 73 279 0.0 0.0 0.00 0.02 0.02 96 1010.0
20260509132204 73 279 0.0 0.0 0.00 0.02 0.02 96 1009.9
20260509131703 73 279 0.0 0.0 0.00 0.02 0.02 96 1009.8
20260509131204 73 280 0.0 0.0 0.00 0.02 0.02 96 1009.7
20260509130703 73 280 0.0 0.0 0.00 0.02 0.02 96 1009.9
20260509125703 73 280 0.0 0.0 0.00 0.02 0.02 96 1009.7
20260509125204 73 280 0.0 0.0 0.00 0.02 0.02 96 1009.8
20260509124704 73 280 0.0 0.0 0.00 0.02 0.02 96 1009.8
20260509124203 73 280 0.0 0.0 0.00 0.02 0.02 96 1009.8
20260509123704 73 280 0.0 0.0 0.00 0.02 0.02 96 1009.7
20260509122704 73 280 0.0 0.0 0.00 0.02 0.02 96 1009.7
20260509122204 73 280 0.0 0.0 0.00 0.02 0.02 96 1009.8
20260509121703 73 280 0.0 0.0 0.00 0.02 0.02 96 1009.7
20260509121203 73 280 0.0 0.0 0.00 0.02 0.02 96 1009.7
20260509120703 73 280 0.0 0.0 0.00 0.02 0.02 96 1009.6
20260509120204 73 280 0.0 0.0 0.00 0.02 0.02 96 1009.6
20260509115704 73 282 0.0 1.0 0.00 0.02 0.02 96 1009.7
20260509115203 73 40 0.0 0.0 0.00 0.02 0.02 96 1009.5
20260509114704 73 23 0.0 3.0 0.00 0.02 0.02 96 1009.4
20260509113704 73 269 0.0 0.0 0.00 0.02 0.02 96 1009.3
20260509112703 73 318 0.0 2.0 0.00 0.02 0.02 96 1009.5
20260509112203 73 311 0.0 0.0 0.00 0.02 0.02 96 1009.6
20260509111703 73 21 0.0 1.0 0.00 0.02 0.02 96 1009.7
20260509111203 73 301 0.0 0.0 0.00 0.02 0.02 96 1009.8
20260509110703 73 301 0.0 0.0 0.00 0.02 0.02 96 1009.8
20260509110204 73 301 0.0 0.0 0.00 0.02 0.02 96 1009.8
20260509105703 73 301 0.0 0.0 0.00 0.02 0.02 96 1010.0
20260509105204 73 301 0.0 0.0 0.00 0.02 0.02 96 1010.4
20260509104704 73 301 0.0 0.0 0.00 0.02 0.02 96 1010.4
20260509104204 73 301 0.0 0.0 0.00 0.02 0.02 96 1010.2
20260509103703 73 301 0.0 2.0 0.00 0.02 0.02 96 1010.2
20260509103203 73 189 0.0 0.0 0.00 0.02 0.02 96 1010.1
20260509102704 73 189 0.0 0.0 0.00 0.02 0.02 96 1010.1
20260509101704 73 189 0.0 0.0 0.00 0.02 0.02 96 1009.6
20260509100204 73 189 0.0 0.0 0.00 0.02 0.02 96 1009.4
20260509095203 73 189 0.0 0.0 0.00 0.02 0.02 95 1009.3
20260509094204 73 189 0.0 0.0 0.01 0.02 0.02 95 1009.2
20260509093704 73 189 0.0 0.0 0.01 0.02 0.02 95 1009.1
20260509093204 73 189 0.0 0.0 0.02 0.02 0.02 95 1009.1
20260509092704 73 189 0.0 0.0 0.02 0.02 0.02 95 1009.2
20260509092204 73 189 0.0 0.0 0.02 0.02 0.02 95 1009.2
20260509091203 73 189 0.0 0.0 0.02 0.02 0.02 95 1009.2
20260509090703 73 189 0.0 0.0 0.02 0.02 0.02 95 1008.9
20260509090204 73 189 0.0 0.0 0.02 0.02 0.02 95 1008.9
20260509085704 73 189 0.0 0.0 0.02 0.02 0.02 95 1008.8
20260509085204 73 189 0.0 0.0 0.02 0.02 0.02 95 1009.0
20260509084203 73 189 0.0 0.0 0.01 0.01 0.01 95 1009.3
20260509083704 73 189 0.0 0.0 0.01 0.01 0.01 95 1009.5
20260509083204 73 189 0.0 0.0 0.00 0.00 0.00 95 1009.6
20260509082204 73 189 0.0 0.0 0.00 0.00 0.00 95 1009.6
20260509081203 73 189 0.0 0.0 0.00 0.00 0.00 95 1009.6
20260509080704 73 189 0.0 0.0 0.00 0.00 0.00 95 1009.6
20260509075204 73 189 0.0 0.0 0.00 0.00 0.00 94 1009.3
20260509074204 73 189 0.0 0.0 0.00 0.00 0.00 94 1009.5
20260509073204 73 189 0.0 0.0 0.00 0.00 0.00 94 1009.5
20260509072704 73 189 0.0 0.0 0.00 0.00 0.00 94 1009.4
20260509071704 73 189 0.0 0.0 0.00 0.00 0.00 94 1009.2
20260509064703 73 189 0.0 0.0 0.00 0.00 0.00 94 1009.3
20260509064204 73 189 0.0 0.0 0.00 0.00 0.00 94 1009.4
20260509063704 73 189 0.0 0.0 0.00 0.00 0.00 94 1009.3
20260509063204 73 189 0.0 0.0 0.00 0.00 0.00 94 1009.2
20260509062704 73 189 0.0 0.0 0.00 0.00 0.00 94 1009.3
20260509062203 73 189 0.0 0.0 0.00 0.00 0.00 94 1009.2
20260509061705 73 189 0.0 0.0 0.00 0.00 0.00 94 1009.2
20260509061203 73 189 0.0 0.0 0.00 0.00 0.00 94 1009.1
20260509060703 73 189 0.0 0.0 0.00 0.00 0.00 94 1009.1
20260509060204 73 189 0.0 0.0 0.00 0.00 0.00 94 1009.1
20260509055703 73 189 0.0 1.0 0.00 0.00 0.00 94 1009.3
20260509055204 73 189 0.0 1.0 0.00 0.00 0.00 94 1009.3
20260509054703 73 185 0.0 3.0 0.00 0.00 0.00 94 1009.3
20260509054203 73 166 0.0 1.0 0.00 0.00 0.00 93 1009.3
20260509053703 73 168 0.0 0.0 0.00 0.00 0.00 93 1009.3
20260509053204 73 132 0.0 0.0 0.00 0.00 0.00 93 1009.3
20260509052704 73 125 0.0 0.0 0.00 0.00 0.00 93 1009.2
20260509052204 73 125 0.0 0.0 0.00 0.00 0.00 93 1009.0
20260509051704 73 125 0.0 0.0 0.00 0.00 0.00 93 1008.9
20260509051203 73 122 1.0 3.0 0.00 0.00 0.00 93 1009.1
20260509050704 73 166 0.0 0.0 0.00 0.00 0.00 93 1009.1
20260509045204 73 114 0.0 0.0 0.00 0.00 0.00 93 1009.2
20260509044204 73 100 0.0 0.0 0.00 0.00 0.00 93 1009.1
20260509043704 73 100 0.0 0.0 0.00 0.00 0.00 93 1009.1
20260509043204 73 100 0.0 0.0 0.00 0.00 0.00 92 1009.2
20260509042704 73 98 0.0 0.0 0.00 0.00 0.00 92 1009.2
20260509042203 73 98 0.0 0.0 0.00 0.00 0.00 92 1009.2
20260509040703 73 98 0.0 0.0 0.00 0.00 0.00 91 1009.4
20260509040204 73 98 0.0 0.0 0.00 0.00 0.00 91 1009.5
20260509035704 74 98 0.0 0.0 0.00 0.00 0.00 91 1009.5
20260509035204 74 98 0.0 0.0 0.00 0.00 0.00 91 1009.4
20260509034704 74 98 0.0 0.0 0.00 0.00 0.00 90 1009.2
20260509034204 74 98 0.0 0.0 0.00 0.00 0.00 90 1009.1
20260509033703 74 98 0.0 0.0 0.00 0.00 0.00 90 1009.0
20260509033203 74 98 0.0 0.0 0.00 0.00 0.00 90 1009.0
20260509032703 74 98 0.0 0.0 0.00 0.00 0.00 90 1009.1
20260509031203 74 98 0.0 0.0 0.00 0.00 0.00 89 1009.1
20260509030703 74 98 0.0 0.0 0.00 0.00 0.00 88 1009.0
20260509030204 74 98 0.0 0.0 0.00 0.00 0.00 88 1008.9
20260509025203 74 98 0.0 0.0 0.00 0.00 0.00 87 1008.7
20260509024703 75 98 0.0 0.0 0.00 0.00 0.00 87 1008.5
20260509024204 75 98 0.0 0.0 0.00 0.00 0.00 88 1008.5
20260509023704 75 98 0.0 0.0 0.00 0.00 0.00 88 1008.4
20260509022204 75 98 0.0 0.0 0.00 0.00 0.00 87 1008.3
20260509021703 76 98 0.0 0.0 0.00 0.00 0.00 87 1008.3
20260509020703 76 98 0.0 0.0 0.00 0.00 0.00 86 1008.2
20260509020204 76 98 0.0 0.0 0.00 0.00 0.00 86 1008.1
20260509015703 76 98 0.0 0.0 0.00 0.00 0.00 85 1008.1
20260509014703 76 98 0.0 0.0 0.00 0.00 0.00 85 1007.9
20260509014203 76 98 0.0 0.0 0.00 0.00 0.00 85 1007.9
20260509013704 76 98 0.0 0.0 0.00 0.00 0.00 85 1008.0
20260509013203 76 98 0.0 0.0 0.00 0.00 0.00 85 1007.9
20260509012703 76 98 0.0 1.0 0.00 0.00 0.00 85 1007.9
20260509011703 76 98 0.0 0.0 0.00 0.00 0.00 84 1007.9
20260509010704 77 98 0.0 0.0 0.00 0.00 0.00 84 1007.9
20260509005704 77 98 0.0 0.0 0.00 0.00 0.00 83 1007.8
20260509005204 77 98 0.0 0.0 0.00 0.00 0.00 83 1007.8
20260509004703 77 98 0.0 0.0 0.00 0.00 0.00 83 1007.8
20260509003204 77 98 0.0 0.0 0.00 0.00 0.00 83 1008.0
20260509002704 77 98 0.0 1.0 0.00 0.00 0.00 82 1008.0
20260509002204 77 98 0.0 0.0 0.00 0.00 0.00 83 1007.8
20260509001704 77 98 0.0 0.0 0.00 0.00 0.00 83 1007.8
20260509001203 77 98 0.0 0.0 0.00 0.00 0.00 82 1007.8
20260509000703 77 98 0.0 0.0 0.00 0.00 0.00 82 1007.9
20260509000204 78 98 0.0 0.0 0.00 0.00 0.00 82 1007.9
20260508235703 78 98 0.0 0.0 0.00 0.00 0.00 82 1007.9
20260508235204 78 98 0.0 0.0 0.00 0.00 0.00 82 1007.8
20260508234704 78 98 0.0 0.0 0.00 0.00 0.00 81 1007.9
20260508234203 78 98 0.0 0.0 0.00 0.00 0.00 81 1007.9
20260508233703 78 98 0.0 0.0 0.00 0.00 0.00 81 1007.9
20260508233203 78 98 0.0 0.0 0.00 0.00 0.00 81 1007.9
20260508232703 78 98 0.0 0.0 0.00 0.00 0.00 80 1007.9
20260508232204 78 98 0.0 0.0 0.00 0.00 0.00 80 1007.9
20260508231703 78 98 0.0 0.0 0.00 0.00 0.00 80 1008.0
20260508230203 79 98 0.0 0.0 0.00 0.00 0.00 79 1007.9
20260508225704 79 99 0.0 0.0 0.00 0.00 0.00 80 1007.9
20260508225204 79 100 0.0 0.0 0.00 0.00 0.00 80 1007.9
20260508224204 79 91 0.0 0.0 0.00 0.00 0.00 79 1007.8
20260508223703 79 87 0.0 0.0 0.00 0.00 0.00 78 1007.8
20260508223203 79 79 0.0 0.0 0.00 0.00 0.00 78 1007.9
20260508222704 80 79 0.0 0.0 0.00 0.00 0.00 78 1007.9
20260508221703 80 75 0.0 1.0 0.00 0.00 0.00 78 1007.9
20260508221203 80 75 0.0 0.0 0.00 0.00 0.00 77 1008.0
20260508220703 80 121 0.0 0.0 0.00 0.00 0.00 76 1008.0
20260508220204 80 121 0.0 0.0 0.00 0.00 0.00 76 1008.0
20260508214203 80 131 0.0 0.0 0.00 0.00 0.00 78 1008.1
20260508213703 80 131 0.0 0.0 0.00 0.00 0.00 77 1008.3
20260508213204 80 131 0.0 2.0 0.00 0.00 0.00 76 1008.3
20260508212703 80 131 0.0 0.0 0.00 0.00 0.00 77 1008.4
20260508212203 80 131 0.0 0.0 0.00 0.00 0.00 75 1008.4
20260508211704 80 131 0.0 0.0 0.00 0.00 0.00 77 1008.3
20260508211203 80 131 0.0 0.0 0.00 0.00 0.00 75 1008.4
20260508210203 81 132 0.0 0.0 0.00 0.00 0.00 75 1008.7
20260508205704 80 129 0.0 0.0 0.00 0.00 0.00 76 1008.7
20260508205203 80 129 0.0 1.0 0.00 0.00 0.00 75 1008.8
20260508204704 80 123 1.0 3.0 0.00 0.00 0.00 75 1008.9
20260508203703 80 109 0.0 0.0 0.00 0.00 0.00 76 1008.9
20260508203203 80 108 0.0 0.0 0.00 0.00 0.00 75 1009.1
20260508202203 80 111 0.0 0.0 0.00 0.00 0.00 75 1009.2
20260508201703 80 183 0.0 0.0 0.00 0.00 0.00 74 1009.4
20260508201203 80 182 0.0 0.0 0.00 0.00 0.00 73 1009.5
20260508200703 80 193 0.0 0.0 0.00 0.00 0.00 74 1009.5
20260508200204 80 100 0.0 0.0 0.00 0.00 0.00 74 1009.6
20260508195704 80 96 0.0 0.0 0.00 0.00 0.00 74 1009.5
20260508195203 80 96 0.0 0.0 0.00 0.00 0.00 74 1009.6
20260508194703 80 96 0.0 0.0 0.00 0.00 0.00 73 1009.5
20260508194204 79 186 0.0 0.0 0.00 0.00 0.00 75 1009.7
20260508193704 79 187 0.0 0.0 0.00 0.00 0.00 75 1009.7
20260508193203 79 130 0.0 0.0 0.00 0.00 0.00 76 1009.9
20260508192204 78 81 0.0 0.0 0.00 0.00 0.00 77 1009.9
20260508191704 77 82 0.0 0.0 0.00 0.00 0.00 77 1010.0
20260508191203 77 82 0.0 0.0 0.00 0.00 0.00 78 1010.0
20260508190703 77 70 0.0 2.0 0.00 0.00 0.00 77 1010.1
20260508185704 76 77 1.0 3.0 0.00 0.00 0.00 78 1010.2
20260508185204 76 72 0.0 2.0 0.00 0.00 0.00 79 1010.3
20260508184203 74 195 0.0 2.0 0.00 0.00 0.00 80 1010.4
20260508183704 74 175 0.0 1.0 0.00 0.00 0.00 81 1010.6